Athens, OH

7:56 PM EDT on April 25, 2017 (GMT -0400)
Ohio University

Weather History for KUNI - January, 2014

Change the Weather History Date:

Sunday, January 19, 2014

  Actual Average (KPKB) Record (KPKB)
Temperature  
Mean Temperature 30 °F -  
Max Temperature 36 °F 37 °F 71 °F (1907)
Min Temperature 23 °F 20 °F -24 °F (1994)
Degree Days  
Heating Degree Days 36    
Moisture  
Dew Point 22 °F    
Average Humidity 73    
Maximum Humidity 93    
Minimum Humidity 53    
Precipitation  
Precipitation 0.00 in - - ()
Sea Level Pressure  
Sea Level Pressure 29.83 in    
Wind  
Wind Speed 5 mph (SW)    
Max Wind Speed 17 mph    
Max Gust Speed 24 mph    
Visibility 10 miles    
Events Snow    
Averages and records for this station are not official NWS values.
T = Trace of Precipitation, MM = Missing Value Source: NWS Daily Summary

Daily Weather History Graph

Daily Weather History Graph

Search for Another Location

Airport or City:

Trip Planner

Search our weather history database for the weather conditions in past years. The results will help you decide how hot, cold, wet, or windy it might be!

Date:

Astronomy

Jan. 19, 2014 Rise Set
Actual Time 7:45 AM EST 5:34 PM EST
Civil Twilight 7:15 AM EST 6:03 PM EST
Nautical Twilight 6:43 AM EST 6:36 PM EST
Astronomical Twilight 6:11 AM EST 7:08 PM EST
Moon 9:09 PM EST (1/19) 9:16 AM EST (1/19)
Length of Visible Light 10h 47m
Length of Day
9h 49m
Waning Gibbous, 89% of the Moon is Illuminated
Jan 19
Waning Gibbous
Jan 24
Last Quarter
Jan 30
New
Feb 6
First Quarter
Feb 14
Full

Hourly Weather History & Observations

Time (EST) Temp. Windchill Dew Point Humidity Pressure Visibility Wind Dir Wind Speed Gust Speed Precip Events Conditions
12:15 AM 23.0 °F - 20.3 °F 89% 29.80 in 10.0 mi Calm Calm - N/A Snow Light Snow
12:35 AM 23.0 °F - 20.3 °F 89% 29.79 in 10.0 mi Calm Calm - N/A Snow Light Snow
12:55 AM 23.0 °F 18.4 °F 20.8 °F 91% 29.78 in 7.0 mi SSE 3.5 mph - N/A Snow Light Snow
1:15 AM 23.0 °F - 20.8 °F 91% 29.77 in 7.0 mi Calm Calm - N/A Snow Light Snow
1:35 AM 23.5 °F - 21.2 °F 91% 29.77 in 10.0 mi Calm Calm - N/A   Overcast
1:55 AM 23.7 °F - 21.6 °F 91% 29.77 in 10.0 mi Calm Calm - N/A   Overcast
2:15 AM 23.9 °F - 21.7 °F 91% 29.77 in 10.0 mi Calm Calm - N/A   Overcast
2:35 AM 23.9 °F - 21.7 °F 91% 29.77 in 10.0 mi Calm Calm - N/A   Overcast
2:55 AM 24.3 °F - 21.9 °F 91% 29.77 in 10.0 mi Calm Calm - N/A   Overcast
3:15 AM 23.9 °F - 21.7 °F 91% 29.77 in 10.0 mi Calm Calm - N/A   Overcast
3:35 AM 24.4 °F - 22.1 °F 91% 29.77 in 10.0 mi Calm Calm - N/A   Overcast
3:55 AM 25.0 °F - 22.3 °F 89% 29.77 in 10.0 mi Calm Calm - N/A   Overcast
4:15 AM 25.7 °F - 22.5 °F 88% 29.77 in 10.0 mi Calm Calm - N/A   Overcast
4:35 AM 25.7 °F - 22.6 °F 88% 29.77 in 10.0 mi Calm Calm - N/A Snow Light Snow
4:55 AM 25.9 °F - 23.0 °F 89% 29.78 in 5.0 mi Calm Calm - N/A Snow Light Snow
5:15 AM 25.7 °F - 23.0 °F 89% 29.79 in 10.0 mi Calm Calm - N/A   Overcast
5:35 AM 27.0 °F 21.6 °F 24.3 °F 90% 29.78 in 10.0 mi SW 4.6 mph - N/A   Overcast
5:55 AM 27.1 °F - 24.8 °F 91% 29.77 in 10.0 mi Calm Calm - N/A   Overcast
6:15 AM 27.5 °F 22.2 °F 25.3 °F 92% 29.79 in 10.0 mi SW 4.6 mph - N/A   Overcast
6:35 AM 27.9 °F 24.0 °F 25.7 °F 92% 29.79 in 10.0 mi WSW 3.5 mph - N/A   Overcast
6:55 AM 28.2 °F 22.0 °F 26.2 °F 92% 29.81 in 10.0 mi West 5.8 mph - N/A   Overcast
7:15 AM 28.4 °F 23.3 °F 26.6 °F 93% 29.82 in 10.0 mi West 4.6 mph - N/A   Overcast
7:35 AM 28.8 °F 20.9 °F 26.6 °F 92% 29.84 in 10.0 mi West 8.1 mph - N/A   Overcast
7:55 AM 28.9 °F 19.8 °F 26.6 °F 91% 29.86 in 10.0 mi West 10.4 mph - N/A   Overcast
8:15 AM 28.8 °F 20.2 °F 26.6 °F 92% 29.86 in 5.0 mi West 9.2 mph - N/A   Overcast
8:35 AM 28.9 °F 20.4 °F 26.2 °F 90% 29.87 in 10.0 mi West 9.2 mph - N/A   Overcast
8:55 AM 29.1 °F 20.6 °F 25.5 °F 86% 29.88 in 10.0 mi West 9.2 mph - N/A   Overcast
9:15 AM 29.3 °F 20.2 °F 24.1 °F 81% 29.89 in 10.0 mi West 10.4 mph 21.9 mph N/A   Overcast
9:35 AM 29.3 °F 20.8 °F 23.2 °F 78% 29.90 in 10.0 mi West 9.2 mph - N/A   Overcast
9:55 AM 29.1 °F 19.4 °F 22.6 °F 77% 29.91 in 10.0 mi West 11.5 mph - N/A   Overcast
10:15 AM 29.3 °F 20.2 °F 21.9 °F 74% 29.91 in 10.0 mi West 10.4 mph - N/A   Overcast
10:35 AM 29.1 °F 20.6 °F 20.5 °F 70% 29.92 in 10.0 mi West 9.2 mph - N/A   Mostly Cloudy
10:55 AM 30.0 °F 19.5 °F 21.0 °F 69% 29.92 in 10.0 mi West 13.8 mph - N/A   Mostly Cloudy
11:15 AM 30.6 °F 21.2 °F 21.6 °F 69% 29.92 in 10.0 mi West 11.5 mph - N/A   Overcast
11:35 AM 30.2 °F 21.3 °F 22.3 °F 72% 29.93 in 10.0 mi WSW 10.4 mph - N/A   Overcast
11:55 AM 30.7 °F 20.9 °F 21.9 °F 70% 29.92 in 10.0 mi West 12.7 mph 18.4 mph N/A   Mostly Cloudy
12:15 PM 31.8 °F 22.8 °F 21.7 °F 66% 29.89 in 10.0 mi WSW 11.5 mph 16.1 mph N/A   Scattered Clouds
12:35 PM 32.2 °F 21.4 °F 20.8 °F 63% 29.88 in 7.0 mi WSW 16.1 mph - N/A   Clear
12:55 PM 32.5 °F 21.9 °F 21.4 °F 64% 29.89 in 10.0 mi SW 16.1 mph 19.6 mph N/A   Clear
1:15 PM 32.9 °F 24.1 °F 21.9 °F 64% 29.88 in 10.0 mi SW 11.5 mph 18.4 mph N/A   Clear
1:35 PM 33.8 °F 23.9 °F 21.7 °F 61% 29.87 in 10.0 mi WSW 15.0 mph 18.4 mph N/A   Clear
1:55 PM 34.0 °F 25.0 °F 21.6 °F 60% 29.86 in 10.0 mi SW 12.7 mph 20.7 mph N/A   Clear
2:15 PM 34.7 °F 25.1 °F 21.4 °F 58% 29.87 in 10.0 mi WSW 15.0 mph 19.6 mph N/A   Clear
2:35 PM 35.2 °F 26.6 °F 21.2 °F 57% 29.86 in 10.0 mi SW 12.7 mph - N/A   Clear
2:55 PM 35.6 °F 25.9 °F 22.1 °F 58% 29.86 in 10.0 mi WSW 16.1 mph 19.6 mph N/A   Clear
3:15 PM 35.6 °F 25.5 °F 21.0 °F 55% 29.86 in 10.0 mi SW 17.3 mph 24.2 mph N/A   Clear
3:35 PM 36.1 °F 27.3 °F 20.5 °F 53% 29.86 in 10.0 mi SW 13.8 mph 20.7 mph N/A   Clear
3:55 PM 36.3 °F 30.1 °F 20.8 °F 53% 29.86 in 10.0 mi SW 8.1 mph 13.8 mph N/A   Clear
4:15 PM 36.7 °F 27.6 °F 20.8 °F 53% 29.86 in 10.0 mi WSW 15.0 mph - N/A   Clear
4:35 PM 36.5 °F 27.4 °F 21.2 °F 54% 29.85 in 10.0 mi SW 15.0 mph 19.6 mph N/A   Clear
4:55 PM 36.0 °F 27.5 °F 21.9 °F 57% 29.85 in 10.0 mi SW 12.7 mph 20.7 mph N/A   Clear
5:15 PM 36.0 °F 28.0 °F 21.6 °F 56% 29.84 in 10.0 mi SW 11.5 mph 19.6 mph N/A   Clear
5:35 PM 35.1 °F 26.4 °F 21.6 °F 58% 29.84 in 10.0 mi SW 12.7 mph 18.4 mph N/A   Clear
5:55 PM 35.1 °F 27.9 °F 21.4 °F 57% 29.85 in 10.0 mi SW 9.2 mph - N/A   Clear
6:15 PM 34.7 °F 28.1 °F 21.4 °F 58% 29.84 in 10.0 mi SSW 8.1 mph - N/A   Clear
6:35 PM 34.3 °F 27.0 °F 21.6 °F 60% 29.84 in 10.0 mi SW 9.2 mph - N/A   Clear
6:55 PM 34.0 °F 28.8 °F 21.4 °F 60% 29.84 in 10.0 mi SSW 5.8 mph - N/A   Clear
7:15 PM 34.0 °F 26.6 °F 21.7 °F 61% 29.83 in 10.0 mi SW 9.2 mph - N/A   Clear
7:55 PM 34.2 °F 24.8 °F 22.1 °F 61% 29.82 in 10.0 mi SW 13.8 mph 19.6 mph N/A   Clear
8:15 PM 34.2 °F 26.2 °F 21.9 °F 61% 29.82 in 10.0 mi SSW 10.4 mph 17.3 mph N/A   Clear
8:35 PM 34.2 °F 27.5 °F 21.9 °F 61% 29.82 in 10.0 mi SSW 8.1 mph 16.1 mph N/A   Clear
8:55 PM 34.5 °F 26.7 °F 22.1 °F 61% 29.80 in 10.0 mi SSW 10.4 mph 20.7 mph N/A   Clear
9:15 PM 34.3 °F 26.5 °F 22.1 °F 61% 29.79 in 10.0 mi SSW 10.4 mph 16.1 mph N/A   Clear
9:35 PM 34.3 °F 26.5 °F 22.6 °F 62% 29.78 in 10.0 mi SSW 10.4 mph 16.1 mph N/A   Clear
9:55 PM 34.7 °F 26.4 °F 22.1 °F 60% 29.77 in 10.0 mi SSW 11.5 mph 17.3 mph N/A   Clear
10:15 PM 34.7 °F 26.9 °F 22.5 °F 61% 29.77 in 10.0 mi SSW 10.4 mph 16.1 mph N/A   Clear
10:35 PM 34.9 °F 27.1 °F 22.3 °F 60% 29.79 in 10.0 mi SW 10.4 mph 17.3 mph N/A   Clear
10:55 PM 34.9 °F 27.7 °F 22.5 °F 61% 29.79 in 10.0 mi SW 9.2 mph - N/A   Clear
11:15 PM 34.3 °F 27.7 °F 22.5 °F 62% 29.80 in 10.0 mi SW 8.1 mph - N/A   Clear
11:35 PM 34.3 °F 29.2 °F 22.5 °F 62% 29.79 in 10.0 mi SSW 5.8 mph - N/A   Clear
11:55 PM 34.5 °F 30.4 °F 22.1 °F 61% 29.79 in 10.0 mi SSW 4.6 mph - N/A   Clear